Location: Newark
(40.9833°N, 0.0333°W)
Time: 14:43:07
(UTC+00:00)

Transit 2A Rocket - Visible Passes

Search period start: 31 October 2020 00:00
Search period end: 10 November 2020 00:00
Orbit: 586 x 916 km, 66.7° (Epoch: 30 October)

Date Brightness Start Highest point End Pass type
(mag) Time Alt. Az. Time Alt. Az. Time Alt. Az.
31 Oct 4.9 17:23:46 10° NNW 17:28:53 56° NE 17:33:29 10° SE visible
31 Oct 7.6 19:07:45 10° WNW 19:10:49 17° WSW 19:13:44 10° SW visible
01 Nov 6.7 18:24:13 10° NW 18:28:35 30° WSW 18:32:36 10° S visible
02 Nov 5.6 17:41:15 10° NW 17:46:13 56° WSW 17:50:43 10° SSE visible
03 Nov 8.2 18:44:24 10° W 18:45:19 10° W 18:46:14 10° WSW visible
04 Nov 7.7 17:59:34 10° WNW 18:03:09 20° WSW 18:06:32 10° SSW visible
05 Nov 6.6 17:16:17 10° NW 17:20:53 37° WSW 17:25:05 10° S visible
06 Nov 8.1 06:07:29 10° SSE 06:12:16 24° ESE 06:16:57 10° NE visible
07 Nov 8.6 05:26:58 10° SE 05:30:00 14° ESE 05:33:00 10° ENE visible
07 Nov 8.3 17:35:24 10° WNW 17:37:41 13° WSW 17:39:53 10° SW visible
09 Nov 7.3 05:41:32 10° S 05:46:55 34° ESE 05:52:11 10° NE visible
